Wind_Speed
13 14 13 12 11 10 9 7 8 7 6 6 7 8 10 13 15 15 12 11 14 14 13 14 12 9 7 15 14 8 5 11 10 7 3 7 6 7 4 5 6 2 2 4 5
12 14 14 13 12 11 11 8 9 8 7 5 5 6 9 13 15 16 15 14 14 13 11 7 12 9 16 9 6 8 7 11 11 13 11 10 8 3 4 2 3 2 3 5 6
12 14 14 14 13 12 12 10 8 8 7 6 5 4 8 12 15 16 16 14 14 14 13 10 12 18 10 10 4 13 2 5 9 5 9 7 7 11 11 3 2 3 3 4 4
11 13 14 15 14 13 11 10 9 8 7 6 5 4 7 12 17 22 19 17 16 15 16 15 22 10 17 4 6 7 4 6 7 9 12 8 9 9 7 5 4 2 3 3 3
12 12 14 15 14 14 13 12 9 9 8 6 6 6 7 10 12 18 20 19 18 16 13 17 14 9 11 3 2 3 2 4 7 9 8 11 8 8 8 8 7 5 5 3 2
13 13 14 14 15 15 14 13 10 10 8 7 7 7 7 9 10 20 21 20 19 18 18 17 18 17 14 8 12 4 4 1 8 9 10 10 6 13 8 9 10 9 6 3 2
14 13 13 14 14 15 14 13 11 11 8 7 7 7 7 9 11 19 22 23 22 20 18 12 21 20 7 7 11 3 10 9 5 6 7 5 3 12 10 8 7 11 10 9 7
15 14 13 13 14 15 15 13 12 11 9 8 7 6 7 6 13 18 22 20 18 17 13 14 18 16 6 10 4 11 4 9 9 4 3 6 14 11 11 8 5 9 12 12 12
14 15 14 13 15 15 14 15 13 12 10 9 8 7 6 11 15 22 24 23 21 19 17 17 17 15 6 9 5 1 10 3 17 8 8 8 11 9 15 9 7 8 10 12 11
14 15 15 15 14 15 14 13 15 14 12 9 8 7 7 10 17 22 25 25 25 22 20 17 14 19 4 7 13 9 6 5 12 1 7 10 13 15 14 12 7 8 8 8 9
15 15 16 16 15 16 15 14 16 15 13 10 8 7 5 9 13 22 24 23 22 25 21 15 19 7 22 12 17 19 4 5 9 10 4 6 12 17 10 12 12 6 9 8 7
13 15 16 17 17 16 16 15 12 12 13 11 8 6 5 8 15 23 25 26 24 24 20 13 14 16 11 5 8 9 8 3 11 15 5 3 9 16 13 10 8 20 17 6 6
11 13 16 18 19 18 17 15 16 16 13 12 10 8 5 7 16 20 22 26 24 23 17 14 16 7 10 12 12 8 7 17 3 11 6 8 9 14 15 5 11 12 4 4 10
14 13 15 19 20 20 19 17 17 16 14 13 11 10 8 9 11 14 20 23 21 15 19 16 11 11 12 10 10 7 20 14 15 15 10 14 10 16 19 11 5 12 4 10 9
18 16 15 19 22 22 20 18 19 17 9 14 14 12 11 12 11 11 13 15 16 10 12 11 17 13 18 12 16 13 7 11 14 13 8 11 13 24 20 10 5 7 7 22 27
21 19 18 18 24 25 22 21 22 21 13 16 12 12 11 10 13 11 11 12 13 10 11 16 12 18 18 17 13 14 10 3 4 11 9 8 16 30 34 15 12 3 5 16 10
22 20 20 19 23 27 26 25 25 22 9 15 15 14 14 12 12 11 9 9 10 10 10 6 10 13 17 9 16 24 6 4 9 12 6 16 22 37 35 31 24 7 9 6 14
21 21 20 20 24 28 29 29 31 20 8 16 16 16 14 13 12 10 9 10 10 12 5 3 9 7 19 20 14 7 10 10 13 14 24 25 23 25 29 30 26 11 11 11 12
18 19 19 19 23 29 31 33 27 12 10 16 16 17 16 15 10 8 8 8 10 14 15 14 8 20 13 14 24 15 17 15 19 15 18 26 36 43 16 19 18 12 14 12 12
16 23 20 19 24 29 33 32 20 20 17 16 18 17 15 16 13 9 9 11 10 9 20 9 7 16 10 13 16 18 14 15 13 16 24 28 27 24 27 27 25 17 15 12 14
14 17 18 22 23 29 32 38 18 19 29 20 16 14 15 17 12 12 11 6 13 17 23 11 12 21 20 17 14 14 21 16 12 16 20 32 31 33 30 43 34 24 15 14 16
16 21 19 20 22 26 34 39 14 20 33 31 24 15 14 17 15 12 13 14 18 11 20 19 9 23 25 14 8 12 6 12 12 20 26 24 35 37 35 35 7 21 13 15 16
19 18 19 21 21 26 39 28 16 22 29 30 18 14 17 17 16 14 28 27 16 15 15 17 17 21 20 26 23 21 15 14 16 12 15 14 28 36 25 21 13 8 10 15 18
15 17 17 20 25 33 35 17 14 29 26 23 21 18 16 19 20 28 22 26 23 23 22 22 12 14 18 21 28 28 24 9 17 12 15 12 24 29 34 10 24 18 16 19 22
17 17 12 19 21 35 27 16 17 19 29 28 23 16 20 16 17 18 16 23 21 19 14 20 13 20 20 9 5 9 25 2 11 13 18 23 25 23 32 32 12 13 15 20 22
21 21 25 14 24 31 31 29 25 19 26 25 29 25 20 29 28 29 32 32 21 18 13 12 9 24 28 27 20 5 12 19 20 20 22 26 25 30 20 29 39 51 37 33 29
21 18 20 23 16 27 14 21 32 34 23 24 22 29 34 42 36 41 34 15 18 9 11 11 10 16 11 12 14 18 19 19 20 18 28 29 32 31 29 36 45 47 48 39 34
Wind_Direction
229 228 227 229 231 232 226 234 247 254 256 249 240 222 211 204 198 187 167 176 167 170 172 152 167 134 112 62 51 47 117 334 328 317 318 4 30 23 5 342 8 3 16 14 14
231 231 230 229 231 233 229 240 245 249 252 249 243 223 204 198 192 175 178 169 171 169 155 149 152 125 78 45 337 49 333 331 340 358 17 35 26 348 144 12 310 48 350 350 14
235 230 230 230 227 231 232 235 244 238 244 247 247 227 199 195 191 171 177 174 176 172 154 169 133 92 67 149 269 114 40 175 347 72 20 12 36 345 360 57 6 23 328 336 12
243 234 231 230 231 231 235 236 244 237 240 246 245 227 199 200 199 182 179 176 180 179 161 169 103 88 126 200 234 274 271 266 350 103 7 25 321 18 343 12 13 338 349 348 356
248 242 233 232 229 233 235 231 238 235 240 245 244 227 214 208 167 189 178 178 183 182 170 156 110 229 121 73 277 284 236 353 351 63 6 32 5 358 5 19 20 25 19 6 5
241 244 239 234 231 234 231 225 231 229 237 245 245 234 216 206 190 180 181 180 184 183 169 171 164 172 148 136 245 228 25 235 46 10 57 313 1 37 14 29 32 36 36 48 72
237 238 239 235 235 228 224 223 227 227 232 242 248 243 219 229 197 187 184 184 186 187 183 180 162 125 121 188 250 7 29 23 48 17 319 212 120 358 359 14 55 62 63 65 73
238 236 236 235 233 230 225 224 225 226 228 233 245 245 225 220 207 196 185 180 184 192 198 188 182 174 154 173 151 99 199 200 323 330 356 342 19 346 356 4 30 72 73 65 66
235 233 234 232 229 229 229 227 228 227 228 232 242 251 248 218 200 193 182 180 183 189 187 193 178 180 102 133 84 98 251 38 322 330 296 346 333 3 347 350 31 55 66 74 70
234 232 230 231 228 227 225 226 227 224 223 230 239 251 256 223 207 192 181 183 180 182 183 188 160 104 131 187 202 216 221 192 291 256 168 300 307 348 349 337 358 20 33 55 66
234 230 228 225 226 225 225 221 222 217 218 222 225 238 240 211 191 189 181 178 186 180 183 170 116 114 233 179 226 176 220 172 250 299 189 179 292 310 356 333 5 348 26 18 50
235 232 227 223 220 221 223 224 218 217 220 218 218 215 212 199 187 182 178 178 185 183 177 187 164 234 208 158 191 203 212 224 270 310 307 224 271 293 339 338 22 319 49 8 48
246 239 230 223 217 215 217 218 218 215 215 212 200 198 186 175 183 182 179 180 185 190 179 203 172 267 255 226 234 235 166 252 206 278 238 188 193 266 301 353 329 330 285 128 89
256 252 238 223 217 213 210 211 211 208 209 203 197 185 177 161 161 179 188 183 182 209 161 224 190 216 214 231 195 188 195 246 239 242 232 281 242 223 259 291 325 324 305 263 80
252 257 252 225 218 210 207 206 203 194 187 204 197 189 177 170 151 153 159 178 174 186 192 230 206 234 239 222 171 255 232 234 245 223 247 234 246 273 275 264 260 298 292 284 142
248 250 251 232 215 207 204 202 193 187 201 218 191 192 179 180 159 158 158 168 166 191 201 172 246 207 237 202 196 236 247 222 215 225 244 222 251 253 255 242 232 257 240 311 7
245 242 242 236 214 204 201 197 188 182 214 232 198 188 178 172 163 163 162 159 150 165 194 199 234 210 191 189 235 219 214 227 253 247 254 244 234 247 257 250 241 159 269 284 249
241 241 236 229 211 202 197 195 187 169 184 255 204 191 184 177 180 182 186 186 175 148 238 246 241 219 208 191 224 246 228 230 250 264 254 238 244 247 274 287 246 191 229 230 262
238 226 229 219 211 200 198 194 166 105 221 230 199 191 174 197 194 201 196 198 204 182 192 236 253 276 252 239 199 218 228 243 250 271 271 264 245 246 208 230 247 236 231 235 239
240 223 223 217 211 202 196 175 152 180 160 209 185 192 189 203 184 244 222 225 207 231 164 210 297 233 237 240 236 223 208 254 245 275 281 280 269 262 257 210 179 240 231 230 254
221 204 215 214 210 202 189 171 164 177 171 170 189 200 194 210 197 225 208 223 193 229 178 167 223 213 190 242 243 250 214 225 230 261 289 286 280 281 303 295 242 176 213 231 248
214 212 212 208 206 195 178 172 204 192 176 162 173 215 188 215 209 204 208 226 199 205 210 171 256 228 225 186 198 221 236 241 240 265 258 277 308 312 295 310 37 163 215 239 240
208 210 207 202 194 182 174 169 238 203 185 177 170 171 197 212 205 206 209 203 238 214 197 183 232 275 231 185 195 196 213 248 244 275 298 305 286 299 311 290 235 258 260 257 257
200 194 201 195 193 170 172 198 231 187 179 197 182 167 194 200 200 224 237 222 233 237 209 188 252 257 283 215 197 196 211 202 247 246 259 248 304 315 320 205 312 253 261 260 262
180 179 184 196 188 178 177 201 182 202 174 182 192 213 179 173 203 216 276 258 255 228 198 198 242 271 282 2 129 235 200 345 267 268 262 255 238 300 312 286 224 159 290 286 274
197 158 166 172 189 174 186 171 191 169 203 196 179 179 201 208 191 203 208 237 236 228 215 200 213 291 307 307 302 221 244 262 264 276 289 280 272 259 256 275 283 289 295 292 283
188 203 190 190 176 203 191 185 177 192 183 187 193 196 215 217 197 218 209 184 190 247 236 233 204 254 221 297 313 286 315 267 258 253 260 267 272 267 269 269 275 286 289 291 289
Height
5877 5878 5880 5881 5883 5884 5885 5885 5886 5887 5887 5887 5888 5889 5889 5891 5893 5896 5900 5903 5904 5905 5906 5908 5911 5912 5913 5915 5916 5915 5913 5912 5910 5909 5910 5909 5910 5909 5908 5908 5906 5906 5906 5907 5906
5874 5875 5877 5879 5880 5882 5883 5884 5884 5885 5885 5886 5886 5887 5888 5889 5891 5895 5899 5901 5903 5905 5907 5911 5910 5913 5915 5922 5918 5917 5917 5914 5912 5909 5911 5912 5911 5908 5903 5907 5907 5907 5907 5908 5906
5872 5873 5874 5876 5878 5879 5880 5882 5882 5883 5884 5884 5884 5885 5886 5887 5890 5894 5896 5900 5902 5904 5908 5911 5911 5914 5918 5921 5921 5917 5920 5915 5914 5913 5913 5912 5911 5907 5907 5908 5909 5907 5908 5907 5907
5870 5871 5872 5873 5875 5877 5878 5879 5880 5881 5882 5882 5883 5884 5884 5885 5888 5889 5895 5899 5901 5904 5907 5910 5912 5917 5918 5921 5921 5921 5919 5917 5916 5917 5915 5914 5906 5911 5912 5911 5909 5909 5908 5908 5907
5868 5869 5870 5871 5873 5874 5876 5877 5878 5879 5880 5881 5881 5882 5883 5885 5888 5891 5893 5897 5900 5903 5907 5909 5911 5913 5913 5921 5923 5920 5919 5917 5917 5919 5918 5916 5914 5913 5912 5911 5910 5909 5908 5908 5908
5865 5866 5868 5869 5870 5872 5873 5875 5876 5877 5878 5879 5880 5881 5882 5884 5886 5888 5892 5896 5899 5901 5904 5908 5910 5915 5921 5922 5922 5920 5920 5921 5920 5920 5919 5916 5914 5912 5913 5911 5909 5908 5908 5908 5908
5862 5864 5865 5867 5868 5870 5871 5873 5874 5876 5877 5878 5878 5879 5881 5883 5885 5887 5890 5894 5896 5900 5902 5907 5911 5911 5916 5923 5921 5921 5921 5922 5924 5923 5920 5918 5918 5915 5915 5913 5911 5909 5909 5908 5908
5859 5860 5862 5864 5866 5868 5870 5871 5872 5874 5875 5876 5877 5877 5879 5881 5882 5885 5889 5893 5896 5899 5903 5906 5910 5912 5916 5919 5922 5923 5927 5924 5923 5923 5922 5922 5917 5918 5916 5915 5912 5910 5910 5909 5909
5856 5858 5859 5861 5863 5865 5867 5869 5870 5872 5873 5874 5875 5876 5877 5878 5880 5882 5886 5891 5894 5898 5902 5905 5910 5914 5916 5921 5925 5928 5924 5924 5923 5925 5924 5923 5921 5921 5918 5916 5913 5912 5910 5909 5910
5852 5855 5856 5858 5861 5863 5865 5867 5868 5870 5872 5873 5874 5876 5876 5875 5876 5880 5884 5889 5892 5897 5901 5905 5911 5913 5921 5924 5926 5927 5925 5930 5926 5925 5926 5924 5922 5922 5922 5916 5914 5913 5913 5912 5912
5849 5851 5853 5855 5858 5860 5863 5865 5867 5869 5870 5872 5873 5873 5873 5874 5875 5878 5883 5888 5892 5895 5900 5906 5910 5915 5912 5919 5923 5926 5928 5929 5928 5925 5925 5928 5922 5922 5923 5918 5916 5913 5913 5914 5913
5845 5847 5850 5852 5855 5858 5860 5863 5865 5868 5869 5870 5872 5872 5873 5873 5875 5877 5882 5887 5890 5895 5900 5906 5909 5911 5914 5919 5920 5922 5928 5931 5928 5926 5926 5928 5927 5922 5923 5921 5920 5910 5898 5916 5914
5842 5844 5846 5849 5852 5855 5858 5861 5862 5865 5868 5870 5871 5873 5874 5875 5875 5878 5882 5885 5890 5894 5900 5905 5909 5913 5913 5917 5919 5924 5929 5927 5928 5926 5926 5927 5928 5922 5922 5922 5921 5919 5914 5913 5915
5839 5841 5843 5846 5850 5852 5855 5858 5861 5864 5867 5871 5872 5873 5875 5876 5877 5879 5881 5885 5888 5895 5899 5905 5908 5909 5912 5915 5920 5926 5923 5924 5924 5925 5926 5927 5929 5926 5925 5921 5923 5921 5912 5914 5909
5835 5837 5839 5842 5845 5849 5853 5856 5859 5864 5868 5871 5871 5873 5875 5878 5879 5881 5883 5885 5888 5894 5900 5905 5907 5908 5910 5914 5917 5919 5918 5921 5921 5922 5924 5928 5928 5922 5923 5923 5921 5923 5919 5899 5890
5830 5833 5835 5838 5841 5846 5850 5854 5858 5864 5865 5868 5871 5874 5876 5878 5880 5882 5885 5887 5889 5893 5897 5901 5906 5905 5907 5911 5916 5917 5916 5918 5920 5921 5923 5925 5929 5918 5917 5918 5919 5920 5922 5909 5910
5825 5828 5830 5833 5838 5842 5847 5851 5858 5862 5867 5868 5872 5874 5876 5879 5881 5883 5886 5887 5889 5893 5897 5898 5902 5903 5906 5911 5915 5914 5916 5920 5922 5922 5922 5923 5921 5911 5911 5914 5918 5912 5917 5918 5909
5820 5822 5826 5829 5833 5838 5843 5849 5854 5863 5868 5868 5871 5874 5877 5880 5882 5884 5886 5888 5890 5894 5900 5901 5903 5904 5905 5908 5913 5912 5916 5919 5920 5920 5918 5917 5915 5913 5913 5913 5918 5911 5914 5916 5914
5814 5818 5821 5825 5829 5833 5840 5845 5857 5864 5873 5870 5871 5874 5877 5882 5884 5884 5885 5887 5890 5892 5899 5906 5905 5902 5904 5905 5908 5911 5914 5918 5917 5917 5914 5910 5906 5902 5898 5908 5913 5913 5913 5911 5909
5810 5813 5818 5821 5825 5830 5836 5846 5850 5855 5867 5870 5872 5875 5879 5883 5885 5884 5886 5889 5892 5893 5895 5900 5902 5904 5904 5906 5907 5907 5911 5914 5914 5915 5910 5899 5894 5896 5898 5893 5885 5912 5909 5906 5906
5807 5810 5814 5817 5821 5826 5834 5844 5847 5854 5861 5871 5875 5877 5881 5884 5884 5887 5890 5891 5891 5892 5892 5897 5904 5898 5901 5904 5905 5906 5905 5908 5911 5912 5906 5897 5898 5896 5897 5888 5852 5893 5904 5899 5898
5804 5807 5810 5815 5820 5825 5833 5840 5845 5851 5859 5861 5869 5878 5880 5884 5884 5888 5890 5889 5888 5890 5891 5893 5893 5897 5894 5898 5903 5908 5909 5910 5910 5907 5903 5899 5884 5886 5889 5881 5873 5883 5897 5898 5890
5800 5805 5809 5812 5817 5824 5832 5836 5841 5850 5857 5862 5866 5872 5879 5882 5883 5887 5877 5882 5884 5886 5887 5889 5892 5886 5890 5891 5892 5898 5899 5905 5904 5903 5902 5899 5893 5881 5877 5880 5884 5887 5890 5892 5891
5800 5804 5808 5812 5815 5815 5828 5836 5840 5846 5851 5859 5865 5870 5877 5877 5880 5876 5875 5878 5880 5882 5883 5886 5888 5881 5886 5888 5887 5891 5895 5895 5898 5899 5897 5898 5892 5881 5875 5868 5874 5880 5883 5882 5885
5798 5802 5807 5813 5817 5821 5826 5836 5842 5848 5850 5856 5862 5867 5873 5868 5879 5881 5874 5873 5877 5879 5881 5884 5884 5881 5880 5882 5885 5890 5891 5891 5896 5894 5891 5890 5892 5888 5881 5870 5867 5863 5885 5884 5879
5794 5788 5798 5813 5817 5821 5828 5827 5841 5847 5852 5855 5860 5866 5871 5864 5867 5868 5868 5869 5874 5877 5879 5881 5886 5876 5875 5878 5882 5880 5887 5891 5890 5889 5888 5885 5887 5885 5883 5874 5867 5854 5872 5877 5873
5798 5801 5805 5809 5816 5821 5824 5829 5838 5837 5850 5856 5857 5856 5852 5858 5857 5858 5859 5855 5871 5874 5876 5878 5882 5876 5882 5881 5881 5876 5881 5884 5883 5882 5880 5881 5875 5877 5879 5874 5867 5863 5857 5856 5863